This demonstration page uses our WeatherBlox Daily Observations layout. Learn more.

Left ArrowRight Arrow

40.92945, -100.16068

Hourly Observations for February 13, 2015

Temp ( °F °C ) Dew Point ( °F °C ) Humidity (%) Winds ( mph kmh ) Pressure ( in mb ) Visibility ( mi km ) Precip ( " mm )
12:15 am 00:15 Clear 24 -4.6 14 -10.1 66 66 Calm 30.30 1026 10 16 N/A
12:35 am 00:35 Clear 24 -4.5 13 -10.3 64 64 Calm 30.27 1025 10 16 N/A
12:55 am 00:55 Clear 22 -5.4 15 -9.6 73 73 Calm 30.30 1026 10 16 N/A
1:15 am 01:15 Clear 22 -5.7 16 -9.1 77 77 W 7 11 30.30 1026 10 16 N/A
1:35 am 01:35 Clear 23 -4.8 15 -9.5 70 70 W 6 9 30.30 1026 10 16 N/A
1:55 am 01:55 Clear 23 -4.8 15 -9.4 71 71 WSW 6 9 30.27 1025 10 16 N/A
2:15 am 02:15 Clear 23 -5 15 -9.2 73 73 W 7 11 30.27 1025 10 16 N/A
2:35 am 02:35 Clear 23 -4.8 17 -8.6 75 75 WNW 5 7 30.27 1025 10 16 N/A
2:55 am 02:55 Clear 23 -4.8 17 -8.1 78 78 W 5 7 30.27 1025 10 16 N/A
3:15 am 03:15 Clear 24 -4.2 18 -7.6 77 77 W 6 9 30.24 1024 10 16 N/A
3:35 am 03:35 Clear 26 -3.3 19 -7.5 73 73 WNW 9 15 30.24 1024 10 16 N/A
3:55 am 03:55 Clear 27 -3 20 -6.6 76 76 WNW 9 15 30.24 1024 10 16 N/A
4:15 am 04:15 Clear 28 -2.1 23 -5.2 80 80 WNW 10 17 30.24 1024 10 16 N/A
4:35 am 04:35 Clear 29 -1.7 23 -4.8 80 80 WNW 9 15 30.24 1024 10 16 N/A
4:55 am 04:55 Clear 28 -2.1 24 -4.6 83 83 WNW 9 15 30.24 1024 10 16 N/A
5:15 am 05:15 Clear 28 -2.2 24 -4.5 84 84 WNW 10 17 30.24 1024 10 16 N/A
5:35 am 05:35 Clear 28 -2.2 24 -4.3 86 86 WNW 10 17 30.27 1025 10 16 N/A
5:55 am 05:55 Clear 28 -2 25 -4.1 86 86 WNW 10 17 30.27 1025 10 16 N/A
6:15 am 06:15 Clear 29 -1.8 25 -4 85 85 WNW 10 17 30.27 1025 10 16 N/A
6:35 am 06:35 Clear 28 -2.2 24 -4.3 86 86 NW 7 11 30.27 1025 10 16 N/A
6:55 am 06:55 Clear 28 -2.1 25 -4 87 87 NW 9 15 30.30 1026 10 16 N/A
7:15 am 07:15 Clear 28 -2.4 24 -4.2 88 88 NW 6 9 30.30 1026 10 16 N/A
7:35 am 07:35 Clear 28 -2.5 24 -4.2 88 88 WNW 5 7 30.30 1026 10 16 N/A
7:55 am 07:55 Sunny 27 -2.6 24 -4.3 88 88 NW 5 7 30.30 1026 10 16 N/A
8:15 am 08:15 Sunny 29 -1.8 26 -3.6 88 88 WNW 7 11 30.30 1026 10 16 N/A
8:35 am 08:35 Sunny 31 -0.3 28 -2.5 85 85 NW 9 15 30.27 1025 10 16 N/A
8:55 am 08:55 Sunny 34 1 29 -1.6 83 83 NW 8 13 30.30 1026 10 16 N/A
9:15 am 09:15 Sunny 37 2.7 30 -1 77 77 NW 10 17 30.27 1025 10 16 N/A
9:35 am 09:35 Sunny 39 3.9 31 -0.6 73 73 NW 10 17 30.27 1025 10 16 N/A
9:55 am 09:55 Sunny 41 4.8 31 -0.5 69 69 NW 9 15 30.27 1025 10 16 N/A
10:15 am 10:15 Sunny 43 6.1 32 -0.2 64 64 NW 13 20 30.24 1024 10 16 N/A
10:35 am 10:35 Sunny 46 7.7 32 0.1 59 59 NW 13 20 30.24 1024 10 16 N/A
10:55 am 10:55 Sunny 48 9 32 0 54 54 NW 12 19 30.21 1023 10 16 N/A
11:15 am 11:15 Sunny 49 9.3 32 0 53 53 WNW 10 17 30.21 1023 10 16 N/A
11:35 am 11:35 Sunny 49 9.7 32 0 51 51 WNW 7 11 30.21 1023 10 16 N/A
11:55 am 11:55 Sunny 52 11.2 31 -0.3 45 45 NW 7 11 30.21 1023 10 16 N/A
12:15 pm 12:15 Sunny 54 12.2 30 -0.9 41 41 NW 14 22 30.18 1022 10 16 N/A
12:35 pm 12:35 Sunny 55 12.6 30 -1 39 39 NW 12 19 30.18 1022 10 16 N/A
12:55 pm 12:55 Partly Cloudy 55 12.8 30 -0.9 39 39 WNW 13 20 30.15 1021 10 16 N/A
1:15 pm 13:15 Sunny 56 13.6 30 -1.2 36 36 WNW 12 19 30.15 1021 10 16 N/A
1:35 pm 13:35 Sunny 57 13.7 29 -1.5 35 35 NW 12 19 30.15 1021 10 16 N/A
1:55 pm 13:55 Sunny 57 14.1 30 -1.3 35 35 WNW 13 20 30.15 1021 10 16 N/A
2:15 pm 14:15 Sunny 58 14.5 29 -1.5 33 33 NW 10 17 30.09 1019 10 16 N/A
2:35 pm 14:35 Sunny 59 14.8 29 -1.5 33 33 W 10 17 30.09 1019 10 16 N/A
2:55 pm 14:55 Sunny 59 14.8 29 -1.4 33 33 WNW 10 17 30.09 1019 10 16 N/A
3:15 pm 15:15 Sunny 60 15.4 29 -1.7 31 31 NW 10 17 30.09 1019 10 16 N/A
3:35 pm 15:35 Sunny 60 15.5 29 -1.7 31 31 WNW 12 19 30.09 1019 10 16 N/A
3:55 pm 15:55 Sunny 60 15.6 29 -1.4 31 31 W 10 17 30.06 1018 10 16 N/A
4:15 pm 16:15 Sunny 60 15.6 29 -1.6 31 31 WNW 9 15 30.06 1018 10 16 N/A
4:35 pm 16:35 Sunny 60 15.6 29 -1.5 31 31 W 7 11 30.06 1018 10 16 N/A
4:55 pm 16:55 Sunny 60 15.5 29 -1.7 31 31 WNW 7 11 30.06 1018 10 16 N/A
5:15 pm 17:15 Sunny 59 15 29 -1.4 33 33 W 6 9 30.06 1018 10 16 N/A
5:35 pm 17:35 Sunny 58 14.2 29 -1.5 34 34 Calm 30.09 1019 10 16 N/A
5:55 pm 17:55 Sunny 56 13.5 29 -1.6 35 35 Calm 30.09 1019 10 16 N/A
6:15 pm 18:15 Clear 52 11 29 -1.7 41 41 WSW 5 7 30.09 1019 10 16 N/A
6:35 pm 18:35 Clear 48 9.1 28 -2.2 45 45 WSW 6 9 30.12 1020 10 16 N/A
6:55 pm 18:55 Clear 48 8.8 28 -2 47 47 SW 7 11 30.12 1020 10 16 N/A
7:15 pm 19:15 Clear 44 6.4 28 -2.2 55 55 SW 8 13 30.15 1021 10 16 N/A
7:35 pm 19:35 Clear 43 6 28 -2.1 56 56 SW 7 11 30.15 1021 10 16 N/A
7:55 pm 19:55 Clear 41 4.8 28 -2.4 60 60 SW 7 11 30.15 1021 10 16 N/A
8:15 pm 20:15 Clear 40 4.3 28 -2.5 62 62 SW 7 11 30.18 1022 10 16 N/A
8:35 pm 20:35 Clear 39 4.1 28 -2.5 63 63 SW 6 9 30.18 1022 10 16 N/A
8:55 pm 20:55 Clear 38 3.5 28 -2.4 66 66 SW 6 9 30.18 1022 10 16 N/A
9:15 pm 21:15 Clear 38 3.4 28 -2.3 67 67 WSW 5 7 30.18 1022 10 16 N/A
9:35 pm 21:35 Clear 38 3.5 28 -2 68 68 WSW 6 9 30.18 1022 10 16 N/A
9:55 pm 21:55 Clear 37 2.5 28 -2.2 71 71 WSW 5 7 30.18 1022 10 16 N/A
10:15 pm 22:15 Clear 38 3.3 28 -2.1 68 68 Calm 30.18 1022 10 16 N/A
10:35 pm 22:35 Clear 33 0.5 28 -2.5 81 81 NW 6 9 30.21 1023 10 16 N/A
10:55 pm 22:55 Clear 33 0.5 27 -2.8 79 79 WNW 6 9 30.21 1023 10 16 N/A
11:15 pm 23:15 Clear 33 0.4 27 -2.9 79 79 WNW 5 7 30.21 1023 10 16 N/A
11:35 pm 23:35 Clear 31 -0.6 26 -3.4 82 82 NW 6 9 30.21 1023 10 16 N/A
11:55 pm 23:55 Clear 31 -0.7 26 -3.2 83 83 NNW 6 9 30.21 1023 10 16 N/A

Powered by AerisWeather